Location: Jackson Park
(37.2862°N, 79.9123°W)
Time: 14:45:31
(UTC+00:00)

Tiros 1 despin weight - Pass Details

Date: 17 May 2026
Orbit: 554 x 591 km, 48.2° (Epoch: 6 June)

Event Time Altitude Azimuth Distance (km) Brightness Sun altitude
Rises 12:09:02 0° 293° (WNW) 2,748 ? 21.9°
Reaches altitude 10° 12:11:53 10° 313° (NW) 1,846 ? 22.5°
Maximum altitude 12:14:50 18° 358° (N) 1,390 ? 23.0°
Drops below altitude 10° 12:17:47 10° 42° (NE) 1,837 ? 23.6°
Sets 12:20:37 0° 62° (ENE) 2,729 ? 24.2°
